ABS124 DBBB-FOOL

Flight info

Callsign ABS124
Flight time 1h 24m
Altitude 37000
Route KIPSA UA601 ETVOV DCT DISLA UG856 BIPIV BIPIV1B
Aircraft A320/M-SDE3FGHIRWY/LB1

Departure

Time 2026-04-25 17:57
Airport Cotonou Cadjehoun International Airport (DBBB)

Arrival

Time 2026-04-25 19:21
Airport Libreville Leon M'ba International Airport (FOOL)
Time Latitude Longitude Altitude Speed Heading
2026-04-25 17:13 6.35293 2.38201 24 ft 0 kts 261°
2026-04-25 17:50 6.35292 2.38198 24 ft 2 kts 262°
2026-04-25 17:50 6.35296 2.38183 28 ft 0 kts 293°
2026-04-25 17:50 6.35297 2.38181 28 ft 1 kts 295°
2026-04-25 17:51 6.35300 2.38176 26 ft 0 kts 300°
2026-04-25 17:51 6.35305 2.38170 25 ft 2 kts 307°
2026-04-25 17:51 6.35319 2.38159 24 ft 0 kts 339°
2026-04-25 17:51 6.35321 2.38160 24 ft 0 kts
2026-04-25 17:52 6.35322 2.38165 24 ft 0 kts 54°
2026-04-25 17:52 6.35335 2.38197 24 ft 9 kts 67°
2026-04-25 17:52 6.35388 2.38277 24 ft 18 kts 51°
2026-04-25 17:53 6.35485 2.38390 26 ft 18 kts 39°
2026-04-25 17:53 6.35531 2.38397 26 ft 3 kts 340°
2026-04-25 17:53 6.35578 2.38375 25 ft 12 kts 337°
2026-04-25 17:53 6.35675 2.38394 29 ft 18 kts 34°
2026-04-25 17:54 6.35767 2.38512 25 ft 26 kts 50°
2026-04-25 17:54 6.35896 2.38676 25 ft 34 kts 53°
2026-04-25 17:54 6.36054 2.38889 23 ft 42 kts 53°
2026-04-25 17:54 6.36242 2.39137 21 ft 45 kts 53°
2026-04-25 17:55 6.36308 2.39287 23 ft 4 kts 106°
2026-04-25 17:55 6.36330 2.39306 24 ft 8 kts 15°
2026-04-25 17:55 6.36354 2.39287 25 ft 1 kts 242°
2026-04-25 17:55 6.36343 2.39272 23 ft 4 kts 237°
2026-04-25 17:56 6.36326 2.39249 24 ft 0 kts 230°
2026-04-25 17:56 6.36284 2.39196 22 ft 39 kts 232°
2026-04-25 17:56 6.35980 2.38789 24 ft 104 kts 232°
2026-04-25 17:56 6.35429 2.38066 26 ft 154 kts 231°
2026-04-25 17:57 6.34748 2.37218 625 ft 147 kts 232°
2026-04-25 17:57 6.34126 2.36398 1205 ft 151 kts 232°
2026-04-25 17:57 6.33481 2.35567 1800 ft 152 kts 224°
2026-04-25 17:57 6.32865 2.35205 2077 ft 165 kts 194°
2026-04-25 17:58 6.31160 2.35312 2874 ft 205 kts 148°
2026-04-25 17:58 6.30231 2.36450 3557 ft 238 kts 127°
2026-04-25 17:58 6.29244 2.37944 4191 ft 265 kts 125°
2026-04-25 17:58 6.28592 2.39691 5220 ft 278 kts 102°
2026-04-25 17:59 6.28413 2.41669 6333 ft 284 kts 94°
2026-04-25 17:59 6.28322 2.43660 7447 ft 285 kts 93°
2026-04-25 17:59 6.28234 2.45621 8614 ft 284 kts 92°
2026-04-25 17:59 6.28131 2.47628 9796 ft 285 kts 94°
2026-04-25 18:00 6.27846 2.49620 10559 ft 300 kts 99°
2026-04-25 18:00 6.27376 2.51761 11156 ft 319 kts 102°
2026-04-25 18:00 6.26826 2.53947 11803 ft 333 kts 103°
2026-04-25 18:00 6.26229 2.56257 12691 ft 340 kts 103°
2026-04-25 18:01 6.25648 2.58547 13617 ft 346 kts 102°
2026-04-25 18:01 6.25069 2.60914 14429 ft 352 kts 102°
2026-04-25 18:01 6.24499 2.63330 15247 ft 358 kts 102°
2026-04-25 18:01 6.23933 2.65789 16063 ft 364 kts 102°
2026-04-25 18:02 6.23363 2.68287 16879 ft 370 kts 102°
2026-04-25 18:02 6.22783 2.70830 17691 ft 376 kts 102°
2026-04-25 18:02 6.22192 2.73412 18449 ft 382 kts 103°
2026-04-25 18:02 6.21420 2.75981 19157 ft 386 kts 112°
2026-04-25 18:03 6.20360 2.78473 19912 ft 390 kts 114°
2026-04-25 18:03 6.19283 2.80996 20681 ft 394 kts 114°
2026-04-25 18:03 6.18197 2.83539 21450 ft 398 kts 114°
2026-04-25 18:03 6.17100 2.86108 22224 ft 402 kts 114°
2026-04-25 18:04 6.15996 2.88697 22979 ft 406 kts 114°
2026-04-25 18:04 6.14878 2.91310 23647 ft 410 kts 115°
2026-04-25 18:04 6.13746 2.93957 24232 ft 413 kts 114°
2026-04-25 18:04 6.12608 2.96615 24787 ft 416 kts 114°
2026-04-25 18:05 6.11462 2.99299 25297 ft 418 kts 114°
2026-04-25 18:05 6.10314 3.01995 25760 ft 421 kts 114°
2026-04-25 18:05 6.09160 3.04706 26184 ft 424 kts 114°
2026-04-25 18:05 6.07994 3.07434 26589 ft 426 kts 114°
2026-04-25 18:06 6.06823 3.10173 26973 ft 428 kts 114°
2026-04-25 18:06 6.05647 3.12927 27333 ft 430 kts 114°
2026-04-25 18:06 6.04469 3.15694 27666 ft 432 kts 114°
2026-04-25 18:06 6.03305 3.18423 27971 ft 434 kts 114°
2026-04-25 18:07 6.02108 3.21223 28280 ft 436 kts 114°
2026-04-25 18:07 6.00894 3.24061 28575 ft 438 kts 114°
2026-04-25 18:07 5.99703 3.26839 28867 ft 440 kts 114°
2026-04-25 18:07 5.98491 3.29667 29175 ft 442 kts 114°
2026-04-25 18:08 5.97271 3.32510 29482 ft 444 kts 114°
2026-04-25 18:08 5.96048 3.35365 29798 ft 446 kts 114°
2026-04-25 18:08 5.94821 3.38233 30054 ft 448 kts 114°
2026-04-25 18:08 5.93591 3.41111 30302 ft 450 kts 114°
2026-04-25 18:09 5.92357 3.43997 30545 ft 451 kts 114°
2026-04-25 18:09 5.91114 3.46900 30785 ft 453 kts 114°
2026-04-25 18:09 5.89870 3.49813 31019 ft 455 kts 113°
2026-04-25 18:09 5.89028 3.51785 31173 ft 456 kts 113°
2026-04-25 18:10 5.87369 3.55667 31520 ft 457 kts 113°
2026-04-25 18:10 5.86109 3.58603 31862 ft 456 kts 113°
2026-04-25 18:10 5.84854 3.61526 32210 ft 455 kts 113°
2026-04-25 18:10 5.83603 3.64443 32548 ft 455 kts 113°
2026-04-25 18:11 5.82353 3.67359 32884 ft 454 kts 112°
2026-04-25 18:11 5.81104 3.70272 33219 ft 454 kts 112°
2026-04-25 18:11 5.79861 3.73184 33558 ft 454 kts 112°
2026-04-25 18:11 5.78617 3.76097 33891 ft 454 kts 112°
2026-04-25 18:12 5.77372 3.79006 34184 ft 453 kts 112°
2026-04-25 18:12 5.76130 3.81895 34484 ft 452 kts 112°
2026-04-25 18:12 5.74741 3.84739 34786 ft 452 kts 121°
2026-04-25 18:12 5.72992 3.87356 35089 ft 451 kts 124°
2026-04-25 18:13 5.71194 3.89933 35371 ft 450 kts 124°
2026-04-25 18:13 5.69399 3.92508 35659 ft 450 kts 124°
2026-04-25 18:13 5.67608 3.95078 35956 ft 448 kts 124°
2026-04-25 18:14 5.64052 4.00195 36552 ft 446 kts 124°
2026-04-25 18:14 5.62282 4.02743 36816 ft 445 kts 125°
2026-04-25 18:14 5.58699 4.07888 36895 ft 454 kts 125°
2026-04-25 18:15 5.55039 4.13133 36890 ft 463 kts 125°
2026-04-25 18:15 5.51328 4.18474 36899 ft 469 kts 124°
2026-04-25 18:16 5.47590 4.23861 36895 ft 473 kts 125°
2026-04-25 18:17 5.41899 4.32025 37121 ft 473 kts 125°
2026-04-25 18:17 5.40049 4.34677 37471 ft 467 kts 125°
2026-04-25 18:17 5.38172 4.37364 37868 ft 461 kts 125°
2026-04-25 18:17 5.36367 4.39942 38178 ft 457 kts 125°
2026-04-25 18:18 5.34531 4.42572 38050 ft 463 kts 125°
2026-04-25 18:18 5.32678 4.45234 37919 ft 468 kts 125°
2026-04-25 18:18 5.30809 4.47920 37788 ft 472 kts 125°
2026-04-25 18:19 5.27063 4.53311 37960 ft 455 kts 125°
2026-04-25 18:19 5.25294 4.55850 38242 ft 433 kts 125°
2026-04-25 18:19 5.23597 4.58284 38262 ft 423 kts 125°
2026-04-25 18:19 5.21892 4.60727 37261 ft 433 kts 125°
2026-04-25 18:20 5.20143 4.63229 36078 ft 446 kts 125°
2026-04-25 18:20 5.18327 4.65819 34951 ft 459 kts 125°
2026-04-25 18:20 5.16483 4.68458 34355 ft 466 kts 124°
2026-04-25 18:20 5.14612 4.71140 34094 ft 471 kts 124°
2026-04-25 18:21 5.12750 4.73812 33903 ft 462 kts 124°
2026-04-25 18:21 5.10941 4.76408 33897 ft 448 kts 124°
2026-04-25 18:21 5.09149 4.78984 33907 ft 453 kts 124°
2026-04-25 18:22 5.05525 4.84192 33906 ft 455 kts 125°
2026-04-25 18:22 5.01889 4.89391 33909 ft 456 kts 125°
2026-04-25 18:23 4.98253 4.94594 33910 ft 456 kts 124°
2026-04-25 18:23 4.94614 4.99804 33905 ft 456 kts 125°
2026-04-25 18:24 4.90972 5.05014 33907 ft 456 kts 125°
2026-04-25 18:24 4.87331 5.10225 33909 ft 456 kts 125°
2026-04-25 18:25 4.83688 5.15447 33909 ft 458 kts 125°
2026-04-25 18:25 4.79880 5.20560 33906 ft 458 kts 133°
2026-04-25 18:26 4.75322 5.25022 33903 ft 456 kts 136°
2026-04-25 18:26 4.70800 5.29417 33910 ft 452 kts 135°
2026-04-25 18:27 4.66384 5.33733 33911 ft 441 kts 136°
2026-04-25 18:27 4.61997 5.38017 33906 ft 440 kts 136°
2026-04-25 18:28 4.57611 5.42302 33909 ft 440 kts 136°
2026-04-25 18:28 4.53222 5.46588 33915 ft 440 kts 136°
2026-04-25 18:29 4.46611 5.53039 33912 ft 449 kts 135°
2026-04-25 18:30 4.37510 5.61916 33914 ft 457 kts 135°
2026-04-25 18:30 4.32957 5.66359 33910 ft 457 kts 135°
2026-04-25 18:31 4.28402 5.70795 33913 ft 457 kts 135°
2026-04-25 18:31 4.23923 5.75153 33912 ft 435 kts 135°
2026-04-25 18:32 4.19581 5.79386 33912 ft 436 kts 135°
2026-04-25 18:32 4.15231 5.83625 33910 ft 436 kts 135°
2026-04-25 18:33 4.10881 5.87860 33909 ft 436 kts 135°
2026-04-25 18:33 4.06539 5.92090 33913 ft 435 kts 135°
2026-04-25 18:34 4.02199 5.96321 33917 ft 435 kts 135°
2026-04-25 18:34 3.97861 6.00550 33918 ft 435 kts 135°
2026-04-25 18:35 3.93525 6.04778 33911 ft 435 kts 135°
2026-04-25 18:35 3.89206 6.08974 33911 ft 435 kts 135°
2026-04-25 18:36 3.84859 6.13189 33914 ft 435 kts 135°
2026-04-25 18:36 3.80508 6.17411 33912 ft 435 kts 135°
2026-04-25 18:37 3.76158 6.21630 33913 ft 435 kts 135°
2026-04-25 18:37 3.71800 6.25839 33913 ft 435 kts 135°
2026-04-25 18:38 3.67446 6.30051 33911 ft 435 kts 135°
2026-04-25 18:38 3.63821 6.33559 33911 ft 435 kts 135°
2026-04-25 18:39 3.59475 6.37772 33918 ft 435 kts 135°
2026-04-25 18:39 3.55123 6.41982 33913 ft 435 kts 135°
2026-04-25 18:40 3.50768 6.46192 33913 ft 435 kts 135°
2026-04-25 18:40 3.46414 6.50395 33915 ft 435 kts 135°
2026-04-25 18:41 3.42066 6.54595 33916 ft 434 kts 135°
2026-04-25 18:41 3.37724 6.58796 33917 ft 434 kts 135°
2026-04-25 18:42 3.34119 6.62280 33912 ft 434 kts 135°
2026-04-25 18:42 3.29043 6.67184 33910 ft 434 kts 135°
2026-04-25 18:43 3.24693 6.71385 33905 ft 435 kts 135°
2026-04-25 18:43 3.20331 6.75596 33904 ft 436 kts 135°
2026-04-25 18:44 3.15970 6.79810 33904 ft 436 kts 135°
2026-04-25 18:44 3.11660 6.84093 33902 ft 437 kts 134°
2026-04-25 18:45 3.07373 6.88405 33902 ft 438 kts 134°
2026-04-25 18:45 3.03059 6.92720 33899 ft 438 kts 134°
2026-04-25 18:46 2.98735 6.97023 33902 ft 439 kts 134°
2026-04-25 18:46 2.94402 7.01330 33909 ft 439 kts 134°
2026-04-25 18:47 2.90065 7.05633 33905 ft 439 kts 134°
2026-04-25 18:47 2.85736 7.09935 33913 ft 439 kts 134°
2026-04-25 18:48 2.81405 7.14237 33912 ft 438 kts 134°
2026-04-25 18:48 2.77095 7.18530 33923 ft 437 kts 134°
2026-04-25 18:49 2.72822 7.22785 33921 ft 436 kts 134°
2026-04-25 18:49 2.68520 7.27050 33925 ft 435 kts 134°
2026-04-25 18:50 2.64232 7.31318 33923 ft 434 kts 134°
2026-04-25 18:50 2.59955 7.35575 33924 ft 433 kts 134°
2026-04-25 18:51 2.56376 7.39132 33922 ft 433 kts 134°
2026-04-25 18:51 2.51421 7.44057 33924 ft 432 kts 134°
2026-04-25 18:52 2.47160 7.48294 33912 ft 432 kts 134°
2026-04-25 18:52 2.42903 7.52529 33910 ft 432 kts 134°
2026-04-25 18:53 2.38641 7.56763 33913 ft 432 kts 134°
2026-04-25 18:53 2.34368 7.60994 33916 ft 432 kts 134°
2026-04-25 18:54 2.27979 7.67338 33909 ft 432 kts 134°
2026-04-25 18:55 2.23723 7.71581 33911 ft 432 kts 134°
2026-04-25 18:55 2.19462 7.75811 33907 ft 432 kts 134°
2026-04-25 18:56 2.15192 7.80044 33918 ft 432 kts 134°
2026-04-25 18:56 2.10958 7.84247 33909 ft 432 kts 134°
2026-04-25 18:57 2.06688 7.88478 33906 ft 432 kts 134°
2026-04-25 18:57 2.02426 7.92714 33904 ft 432 kts 134°
2026-04-25 18:58 1.98155 7.96959 33906 ft 433 kts 134°
2026-04-25 18:58 1.91751 8.03307 33911 ft 433 kts 134°
2026-04-25 18:59 1.87415 8.07611 32905 ft 444 kts 134°
2026-04-25 18:59 1.83073 8.11923 31831 ft 436 kts 134°
2026-04-25 19:00 1.78806 8.16150 30851 ft 427 kts 134°
2026-04-25 19:00 1.76703 8.18237 30371 ft 424 kts 134°
2026-04-25 19:01 1.72554 8.22352 29393 ft 416 kts 134°
2026-04-25 19:01 1.70513 8.24375 28952 ft 411 kts 134°
2026-04-25 19:01 1.68498 8.26376 28520 ft 406 kts 134°
2026-04-25 19:01 1.66504 8.28358 28089 ft 402 kts 134°
2026-04-25 19:02 1.62570 8.32271 27261 ft 396 kts 134°
2026-04-25 19:02 1.60620 8.34208 26846 ft 394 kts 134°
2026-04-25 19:02 1.58680 8.36130 26429 ft 392 kts 134°
2026-04-25 19:03 1.56122 8.38668 25883 ft 390 kts 135°
2026-04-25 19:03 1.52933 8.41829 25184 ft 387 kts 135°
2026-04-25 19:03 1.51027 8.43719 24748 ft 386 kts 135°
2026-04-25 19:04 1.47219 8.47494 23864 ft 384 kts 135°
2026-04-25 19:04 1.45328 8.49370 23409 ft 384 kts 135°
2026-04-25 19:05 1.41554 8.53110 22448 ft 379 kts 135°
2026-04-25 19:05 1.37840 8.56797 21531 ft 373 kts 135°
2026-04-25 19:05 1.36008 8.58613 21085 ft 370 kts 135°
2026-04-25 19:06 1.34187 8.60420 20628 ft 368 kts 135°
2026-04-25 19:06 1.30585 8.63995 19736 ft 363 kts 135°
2026-04-25 19:06 1.28795 8.65771 19289 ft 361 kts 135°
2026-04-25 19:07 1.25241 8.69292 18403 ft 358 kts 135°
2026-04-25 19:07 1.23478 8.71039 17919 ft 357 kts 135°
2026-04-25 19:08 1.19983 8.74497 17034 ft 350 kts 136°
2026-04-25 19:08 1.18259 8.76206 16590 ft 348 kts 136°
2026-04-25 19:09 1.13172 8.81263 15309 ft 341 kts 136°
2026-04-25 19:09 1.12059 8.82369 15029 ft 339 kts 136°
2026-04-25 19:09 1.08163 8.86237 14053 ft 336 kts 136°
2026-04-25 19:10 1.06504 8.87881 13625 ft 335 kts 136°
2026-04-25 19:10 1.04852 8.89515 13182 ft 334 kts 136°
2026-04-25 19:10 1.03205 8.91141 12765 ft 331 kts 136°
2026-04-25 19:10 1.01576 8.92751 12352 ft 328 kts 136°
2026-04-25 19:11 0.99959 8.94355 11943 ft 326 kts 136°
2026-04-25 19:11 0.98374 8.95928 11543 ft 325 kts 136°
2026-04-25 19:11 0.96756 8.97532 11130 ft 323 kts 136°
2026-04-25 19:11 0.95166 8.99109 10757 ft 320 kts 136°
2026-04-25 19:12 0.93615 9.00648 10626 ft 308 kts 136°
2026-04-25 19:12 0.92124 9.02127 10310 ft 305 kts 136°
2026-04-25 19:12 0.90623 9.03614 9947 ft 304 kts 136°
2026-04-25 19:12 0.89126 9.05097 9581 ft 302 kts 136°
2026-04-25 19:13 0.87636 9.06573 9210 ft 300 kts 136°
2026-04-25 19:13 0.86155 9.08038 8844 ft 299 kts 136°
2026-04-25 19:13 0.84681 9.09498 8482 ft 297 kts 136°
2026-04-25 19:13 0.83220 9.10949 8122 ft 296 kts 137°
2026-04-25 19:14 0.81761 9.12396 7758 ft 294 kts 136°
2026-04-25 19:14 0.81273 9.12880 7636 ft 294 kts 137°
2026-04-25 19:14 0.78866 9.15259 7045 ft 292 kts 136°
2026-04-25 19:14 0.77430 9.16683 6705 ft 290 kts 136°
2026-04-25 19:15 0.76004 9.18098 6382 ft 288 kts 136°
2026-04-25 19:15 0.74587 9.19506 6023 ft 287 kts 136°
2026-04-25 19:15 0.73175 9.20908 5656 ft 285 kts 136°
2026-04-25 19:15 0.71770 9.22300 5313 ft 283 kts 136°
2026-04-25 19:16 0.70545 9.23517 5013 ft 282 kts 136°
2026-04-25 19:16 0.69179 9.24876 4685 ft 280 kts 136°
2026-04-25 19:16 0.67804 9.26239 4349 ft 277 kts 136°
2026-04-25 19:16 0.66437 9.27591 3995 ft 276 kts 136°
2026-04-25 19:17 0.65048 9.28965 3370 ft 285 kts 136°
2026-04-25 19:17 0.63653 9.30342 3111 ft 279 kts 136°
2026-04-25 19:17 0.62301 9.31681 3022 ft 270 kts 136°
2026-04-25 19:17 0.60999 9.32973 3025 ft 256 kts 136°
2026-04-25 19:18 0.59775 9.34188 3029 ft 239 kts 136°
2026-04-25 19:18 0.58482 9.35109 3125 ft 211 kts 157°
2026-04-25 19:18 0.57358 9.35646 3648 ft 159 kts 155°
2026-04-25 19:18 0.56367 9.36136 3377 ft 160 kts 155°
2026-04-25 19:19 0.55387 9.36614 3201 ft 151 kts 155°
2026-04-25 19:19 0.54397 9.37094 3127 ft 174 kts 155°
2026-04-25 19:19 0.53231 9.37659 3046 ft 195 kts 155°
2026-04-25 19:19 0.52826 9.37855 3010 ft 187 kts 155°
2026-04-25 19:20 0.50968 9.38752 1961 ft 188 kts 156°
2026-04-25 19:20 0.49749 9.39336 1158 ft 195 kts 157°
2026-04-25 19:20 0.48584 9.39889 785 ft 179 kts 157°
2026-04-25 19:20 0.47498 9.40426 296 ft 176 kts 153°
2026-04-25 19:21 0.46436 9.40948 38 ft 157 kts 156°
2026-04-25 19:21 0.45444 9.41415 38 ft 19 kts 218°
2026-04-25 19:21 0.45381 9.41358 38 ft 10 kts 246°
2026-04-25 19:22 0.45390 9.41314 37 ft 6 kts 326°
2026-04-25 19:22 0.45438 9.41294 38 ft 9 kts 344°
2026-04-25 19:22 0.45519 9.41246 37 ft 4 kts 240°
2026-04-25 19:23 0.45500 9.41218 36 ft 6 kts 240°
2026-04-25 19:23 0.45497 9.41212 35 ft 0 kts 240°